Tracking 20712 objects as of 29-May-2020
HD Live streaming from Space Station
objects crossing your sky now

SL-8 DEB

Track SL-8 DEB now!
10-day predictions


NORAD ID: 39840
Int'l Code: 1991-009DY
Perigee: 997.8 km
Apogee: 1,200.7 km
Inclination: 73.8 °
Period: 107.1 minutes
Semi major axis: 7470 km
RCS: 0.0175 m2 (small)
Launch date: February 12, 1991
Source: Commonwealth of Independent States (former USSR) (CIS)
Launch site: PLESETSK MISSILE AND SPACE COMPLEX (PKMTR)

Note: This is SATELLITE DEBRIS
aabbcc
Your satellite tracking list
Your tracking list is empty




NASA's NSSDC Master Catalog

Two Line Element Set (TLE):
1 39840U 91009DY  20150.05869277 +.00001060 +00000-0 +17512-2 0  9990
2 39840 073.8142 067.5574 0135795 176.2213 198.1098 13.44623681295210
Source of the keplerian elements: AFSPC